Weather in Krasnyy Yar

Russia / Kemerovo Oblast     55°54′11″N   86°56′46″E
temp.,
°C
wind,
m/s
gust,
m/s
humid.,
%
clouds,
%
prec.,
mm/h
press.,
hPa
HPBL,
m
12 april, mon
mon1201:00+1sw2598100 0.0 1036121
04:00+1sw3799100 0.2 1035226
07:00+1sw41098100 0.3 1034386
10:00+2sw61391100 0.0 1032453
13:00+4sw71680100 0.1 1029582
16:00+4sw71578100 0.0 1027634
19:00+3wsw51286100 0.4 1027632
22:00+2wsw51196100 4.2 1026466
13 april, tue
tue1301:000wsw41099100 9.5 1026482
04:00+1wnw3898100 1.1 1026500
07:000wnw389676 1.1 1028357
10:000wnw3586100 0.0 1029582
13:00+3wnw45709 0.0 1029941
16:00+5wnw576396 0.1 10281697
19:00+3w4972100 0.3 1028640
22:00+1w51089100 0.1 1029676
14 april, wed
wed1401:00+1w4109095 0.1 1029430
04:00−1wsw4109560 0.1 1029347
07:000wsw5119499 0.2 1029510
10:00+2w5982100 0.1 1029823
13:00+4w5873100 0.2 10281134
16:00+4wsw61086100 0.3 1026843
19:00+3wsw61297100 1.0 1023803
22:00+3wsw61386100 0.0 1022753
15 april, thu
thu1501:00+3wsw51192100 0.1 1021672
04:00+3wsw499489 0.1 1021387
07:00+2sw4996100 0.3 1021371
10:00+3sw3796100 0.5 1022297
13:00+3sw3895100 0.7 1021373
16:00+3sw4996100 0.1 1020436
19:00+4sw41197100 0.1 1018528
22:00+5sw51296100 0.1 1017555
16 april, fri
fri1601:00+5sw51293100 0.1 1016406
04:00+6sw61594100 0.2 1014511
07:00+6sw51295100 0.4 1014531
10:00+7wsw51091100 0.0 1014566
13:00+9w3786100 0.1 1015734
16:00+8nnw2386100 0.0 1015356
19:00+7ne2292100 0.0 1014118
22:00+5ene2497100 0.0 1014119